Regional Weather Roundup
Issued by NWS Goodland, KS

Home | Current Version | Previous Version | Graphics & Text | Print | Product List | Glossary On
Versions: 1 2 3 4 5 6 7 8 9 10 11 12 13 14 15 16 17 18 19 20 21 22 23 24 25 26 27 28 29 30 31 32 33 34 35 36 37 38 39 40 41 42 43 44 45 46 47 48 49 50
000
ASUS43 KGLD 110359
RWRGLD

GOODLAND FORECAST AREA HOURLY WEATHER ROUNDUP
NATIONAL WEATHER SERVICE GOODLAND KS
900 PM MST SUN DEC 10 2017

...OFFICIAL OBSERVATIONS...

CITY           SKY/WX    TMP DP  RH WIND       PRES   REMARKS
GOODLAND KS    CLEAR     36   2  23 W12       30.26S
HILL CITY KS   CLEAR     40  12  32 W12       30.20S
IMPERIAL NEB   CLEAR     37   4  25 W10       30.22F
MCCOOK NEB     CLOUDY    38   9  30 W7        30.19F
AKRON CO       CLOUDY    35  -3  19 W12       30.29R
BURLINGTON CO  CLEAR     26   1  34 W10       30.29S WCI  16
LIMON CO       CLOUDY    16  -5  39 N5        30.33S
$$

...UNOFFICIAL OBSERVATIONS...

CITY           SKY/WX    TMP DP  RH WIND       PRES   REMARKS
LENORA KS        N/A     44  32  63 W8          N/A
NORTON KS      CLEAR     34   3  27 SW8       30.18
SHARON SPRINGS   N/A     28   4  36 W6          N/A
KIT CARSON CO    N/A     32   1  27 MISG        N/A
YUMA CO        FAIR      27   1  33 W8        30.28R
$$



USA.gov is the U.S. government's official web portal to all federal, state and local government web resources and services.